Location: Crescent
(42.8242°N, 73.7329°W)
Time: 12:05:53
(UTC+00:00)

Explorer 7 - Pass Details

Date: 22 February 2026
Orbit: 430 x 540 km, 50.2° (Epoch: 17 March)

Event Time Altitude Azimuth Distance (km) Brightness Sun altitude
Rises 19:29:36 0° 265° (W) 2,410 10.7 28.2°
Reaches altitude 10° 19:31:48 10° 275° (W) 1,555 9.7 27.9°
Maximum altitude 19:35:02 35° 343° (NNW) 752 7.5 27.5°
Drops below altitude 10° 19:38:23 10° 50° (NE) 1,607 8.7 27.1°
Sets 19:40:42 0° 60° (ENE) 2,505 9.7 26.8°
